• în România
  • Lista ţărilor
  • Pe 7 zile
  • Temperatura apei
  • Hartă satelitară
  • Meteo pe hartă
  • Widget-uri
  • user-avatar
    Intrare

    Meteo pe oră la Melbourne

    Astăzi, 23 Septembrie, Sâmbătă

    Timp Temperatura Precipitaţii Vânt Presiune Umiditate
    00:00 +18°C° 0 mm 4 m/s 751 mmHg 54%
    01:00 +18°C° 0 mm 4 m/s 751 mmHg 50%
    02:00 +19°C° 0 mm 4 m/s 750 mmHg 48%
    03:00 +19°C° 0 mm 4 m/s 749 mmHg 46%
    04:00 +20°C° 0 mm 5 m/s 748 mmHg 41%
    05:00 +19°C° 0 mm 5 m/s 748 mmHg 42%
    06:00 +19°C° 0 mm 5 m/s 748 mmHg 42%
    07:00 +17°C° 0 mm 5 m/s 747 mmHg 43%
    08:00 +20°C° 0,1 mm 5 m/s 747 mmHg 43%
    09:00 +22°C° 0,1 mm 5 m/s 746 mmHg 43%
    10:00 +26°C° 0 mm 6 m/s 745 mmHg 33%
    11:00 +27°C° 0 mm 6 m/s 744 mmHg 34%
    12:00 +28°C° 0 mm 7 m/s 743 mmHg 35%
    13:00 +30°C° 0 mm 7 m/s 742 mmHg 35%
    14:00 +30°C° 0 mm 7 m/s 742 mmHg 37%
    15:00 +30°C° 0 mm 7 m/s 742 mmHg 38%
    16:00 +28°C° 0 mm 6 m/s 742 mmHg 43%
    17:00 +24°C° 0 mm 6 m/s 743 mmHg 52%
    18:00 +21°C° 0 mm 5 m/s 744 mmHg 61%
    19:00 +19°C° 0 mm 4 m/s 745 mmHg 69%
    20:00 +18°C° 0 mm 4 m/s 746 mmHg 69%
    21:00 +15°C° 0 mm 4 m/s 747 mmHg 69%
    22:00 +14°C° 0 mm 4 m/s 747 mmHg 69%
    23:00 +14°C° 0 mm 4 m/s 747 mmHg 69%

    Mâine, 24 Septembrie, Duminică

    Timp Temperatura Precipitaţii Vânt Presiune Umiditate
    00:00 +13°C° 0 mm 4 m/s 748 mmHg 69%
    01:00 +13°C° 0 mm 4 m/s 748 mmHg 69%
    02:00 +12°C° 0 mm 4 m/s 748 mmHg 70%
    03:00 +12°C° 0 mm 4 m/s 748 mmHg 72%
    04:00 +12°C° 0 mm 4 m/s 747 mmHg 73%
    05:00 +12°C° 0,1 mm 4 m/s 748 mmHg 76%
    06:00 +10°C° 0,1 mm 5 m/s 748 mmHg 79%
    07:00 +10°C° 0,1 mm 5 m/s 748 mmHg 82%
    08:00 +12°C° 0,2 mm 5 m/s 748 mmHg 81%
    09:00 +11°C° 0,2 mm 6 m/s 748 mmHg 79%
    10:00 +13°C° 0,2 mm 6 m/s 748 mmHg 78%
    11:00 +12°C° 0,4 mm 7 m/s 748 mmHg 75%
    12:00 +14°C° 0,4 mm 7 m/s 748 mmHg 71%
    13:00 +15°C° 0,4 mm 7 m/s 748 mmHg 68%
    14:00 +15°C° 0,3 mm 7 m/s 748 mmHg 68%
    15:00 +15°C° 0,3 mm 7 m/s 748 mmHg 68%
    16:00 +15°C° 0,3 mm 7 m/s 748 mmHg 68%
    17:00 +14°C° 0,2 mm 7 m/s 748 mmHg 70%
    18:00 +13°C° 0,2 mm 6 m/s 748 mmHg 72%
    19:00 +11°C° 0,2 mm 6 m/s 749 mmHg 74%
    20:00 +11°C° 0 mm 6 m/s 749 mmHg 73%
    21:00 +13°C° 0 mm 6 m/s 749 mmHg 71%
    22:00 +12°C° 0 mm 7 m/s 750 mmHg 69%
    23:00 +13°C° 0 mm 6 m/s 750 mmHg 70%

    Poimâine, 25 Septembrie, Luni

    Timp Temperatura Precipitaţii Vânt Presiune Umiditate
    00:00 +11°C° 0 mm 6 m/s 750 mmHg 71%
    01:00 +11°C° 0 mm 6 m/s 751 mmHg 72%
    02:00 +12°C° 0,1 mm 5 m/s 751 mmHg 76%
    03:00 +12°C° 0,1 mm 4 m/s 751 mmHg 81%
    04:00 +11°C° 0,1 mm 4 m/s 752 mmHg 85%
    05:00 +11°C° 0,4 mm 4 m/s 752 mmHg 88%
    06:00 +11°C° 0,4 mm 3 m/s 753 mmHg 91%
    07:00 +10°C° 0,4 mm 3 m/s 753 mmHg 94%
    08:00 +11°C° 0,4 mm 4 m/s 754 mmHg 91%
    09:00 +12°C° 0,4 mm 4 m/s 755 mmHg 89%
    10:00 +12°C° 0,4 mm 4 m/s 755 mmHg 86%
    11:00 +13°C° 0,3 mm 4 m/s 756 mmHg 79%
    12:00 +14°C° 0,3 mm 5 m/s 756 mmHg 73%
    13:00 +14°C° 0,3 mm 5 m/s 756 mmHg 67%
    14:00 +14°C° 0,1 mm 4 m/s 756 mmHg 65%
    15:00 +14°C° 0,1 mm 4 m/s 756 mmHg 63%
    16:00 +14°C° 0,1 mm 4 m/s 756 mmHg 61%
    17:00 +13°C° 0 mm 4 m/s 757 mmHg 64%
    18:00 +11°C° 0 mm 3 m/s 758 mmHg 67%
    19:00 +10°C° 0 mm 2 m/s 758 mmHg 69%
    20:00 +9°C° 0 mm 2 m/s 759 mmHg 74%
    21:00 +8°C° 0 mm 2 m/s 760 mmHg 79%
    22:00 +7°C° 0 mm 2 m/s 760 mmHg 84%
    23:00 +6°C° 0 mm 2 m/s 760 mmHg 86%

    26 Septembrie, Marţi

    Timp Temperatura Precipitaţii Vânt Presiune Umiditate
    00:00 +6°C° 0 mm 2 m/s 760 mmHg 87%
    01:00 +5°C° 0 mm 2 m/s 760 mmHg 89%
    02:00 +6°C° 0 mm 1 m/s 760 mmHg 90%
    03:00 +6°C° 0 mm 1 m/s 760 mmHg 91%
    04:00 +5°C° 0 mm 1 m/s 760 mmHg 91%
    05:00 +6°C° 0 mm 1 m/s 760 mmHg 89%
    06:00 +6°C° 0 mm 1 m/s 760 mmHg 87%
    07:00 +7°C° 0 mm 1 m/s 761 mmHg 85%
    08:00 +10°C° 0 mm 1 m/s 760 mmHg 73%
    09:00 +12°C° 0 mm 1 m/s 760 mmHg 61%
    10:00 +15°C° 0 mm 1 m/s 760 mmHg 50%
    11:00 +16°C° 0 mm 1 m/s 760 mmHg 46%
    12:00 +19°C° 0 mm 1 m/s 759 mmHg 43%
    13:00 +19°C° 0 mm 2 m/s 758 mmHg 39%
    14:00 +19°C° 0 mm 2 m/s 758 mmHg 42%
    15:00 +19°C° 0 mm 2 m/s 757 mmHg 44%
    16:00 +19°C° 0 mm 2 m/s 756 mmHg 46%
    17:00 +17°C° 0 mm 2 m/s 756 mmHg 54%
    18:00 +15°C° 0 mm 2 m/s 756 mmHg 62%
    19:00 +13°C° 0 mm 3 m/s 756 mmHg 70%
    20:00 +13°C° 0 mm 3 m/s 756 mmHg 70%
    21:00 +12°C° 0 mm 3 m/s 755 mmHg 70%
    22:00 +12°C° 0 mm 3 m/s 754 mmHg 71%
    23:00 +12°C° 0,3 mm 3 m/s 753 mmHg 77%

    27 Septembrie, Miercuri

    Timp Temperatura Precipitaţii Vânt Presiune Umiditate
    00:00 +11°C° 0,3 mm 3 m/s 752 mmHg 83%
    01:00 +10°C° 0,3 mm 3 m/s 751 mmHg 90%
    02:00 +11°C° 0,1 mm 3 m/s 751 mmHg 85%
    03:00 +12°C° 0,1 mm 3 m/s 750 mmHg 80%
    04:00 +12°C° 0,1 mm 3 m/s 749 mmHg 75%
    05:00 +12°C° 0 mm 4 m/s 749 mmHg 75%
    06:00 +12°C° 0 mm 4 m/s 750 mmHg 75%
    07:00 +12°C° 0 mm 4 m/s 750 mmHg 75%
    08:00 +14°C° 0 mm 5 m/s 750 mmHg 68%
    09:00 +16°C° 0 mm 6 m/s 750 mmHg 61%
    10:00 +18°C° 0 mm 7 m/s 750 mmHg 54%
    11:00 +18°C° 0,2 mm 7 m/s 750 mmHg 57%
    12:00 +18°C° 0,2 mm 7 m/s 751 mmHg 60%
    13:00 +18°C° 0,2 mm 8 m/s 751 mmHg 62%
    14:00 +17°C° 0,5 mm 7 m/s 751 mmHg 69%
    15:00 +16°C° 0,5 mm 6 m/s 752 mmHg 76%
    16:00 +15°C° 0,5 mm 5 m/s 752 mmHg 83%
    17:00 +14°C° 0,3 mm 5 m/s 753 mmHg 87%
    18:00 +13°C° 0,3 mm 4 m/s 754 mmHg 90%
    19:00 +12°C° 0,3 mm 3 m/s 755 mmHg 93%
    20:00 +11°C° 0 mm 3 m/s 756 mmHg 94%
    21:00 +10°C° 0 mm 2 m/s 756 mmHg 94%
    22:00 +9°C° 0 mm 2 m/s 757 mmHg 95%
    23:00 +9°C° 0 mm 2 m/s 757 mmHg 95%

    28 Septembrie, Joi

    Timp Temperatura Precipitaţii Vânt Presiune Umiditate
    00:00 +8°C° 0 mm 2 m/s 757 mmHg 96%
    01:00 +8°C° 0 mm 2 m/s 757 mmHg 96%
    02:00 +8°C° 0 mm 2 m/s 757 mmHg 96%
    03:00 +8°C° 0 mm 2 m/s 757 mmHg 96%
    04:00 +8°C° 0 mm 2 m/s 758 mmHg 96%
    05:00 +8°C° 0 mm 2 m/s 758 mmHg 96%
    06:00 +8°C° 0 mm 2 m/s 758 mmHg 95%
    07:00 +8°C° 0 mm 2 m/s 759 mmHg 95%
    08:00 +10°C° 0 mm 2 m/s 759 mmHg 88%
    09:00 +12°C° 0 mm 2 m/s 759 mmHg 80%
    10:00 +14°C° 0 mm 2 m/s 759 mmHg 73%
    11:00 +14°C° 0 mm 2 m/s 759 mmHg 69%
    12:00 +15°C° 0 mm 2 m/s 759 mmHg 65%
    13:00 +16°C° 0 mm 3 m/s 759 mmHg 61%
    14:00 +16°C° 0 mm 3 m/s 759 mmHg 60%
    15:00 +16°C° 0 mm 3 m/s 758 mmHg 60%
    16:00 +17°C° 0 mm 3 m/s 758 mmHg 59%
    17:00 +14°C° 0,1 mm 3 m/s 759 mmHg 67%
    18:00 +12°C° 0,1 mm 3 m/s 759 mmHg 75%
    19:00 +12°C° 0,1 mm 2 m/s 760 mmHg 83%
    20:00 +10°C° 0 mm 2 m/s 760 mmHg 86%
    21:00 +10°C° 0 mm 2 m/s 760 mmHg 89%
    22:00 +9°C° 0 mm 2 m/s 761 mmHg 91%
    23:00 +9°C° 0 mm 2 m/s 761 mmHg 92%
    Arată mai mult